Location: Kolow
(53.3254°N, 14.6815°E)
Time: 20:52:18
(UTC+00:00)

Daily predictions for brighter satellites

Satellite Brightness Start Highest point End
(mag) Time Altitude Azimuth Time Altitude Azimuth Time Altitude Azimuth
SME Rocket 3.0 18:39:34 10° NNE 18:43:21 86° ESE 18:47:56 10° SSW
RESURS DK-1 3.1 18:40:39 10° S 18:44:19 31° ESE 18:48:00 10° NE
Cosmos 1634 Rocket 4.2 18:42:39 10° SSE 18:48:43 54° E 18:54:46 10° NNE
COSMOS 2428 3.0 18:43:05 10° NW 18:48:51 76° WSW 18:54:35 10° SSE
Cosmos 1726 Rocket 3.6 18:45:51 10° S 18:50:13 89° WNW 18:54:36 10° N
Cosmos 1356 3.9 18:47:21 10° N 18:50:39 41° ENE 18:53:54 10° SE
ERS-2 2.5 18:48:15 10° NNE 18:51:55 72° WNW 18:55:32 10° SSW
Cosmos 2228 3.7 18:48:17 10° SSW 18:52:35 59° WNW 18:56:51 10° N
SAR-Lupe-4 4.3 18:50:05 10° N 18:53:39 59° WNW 18:57:10 10° SSW
Cosmos 2058 2.9 18:49:59 10° N 18:54:12 76° ENE 18:58:23 10° SSE
Cosmos 2219 Rocket 2.8 18:52:17 10° NW 18:57:52 58° WSW 19:03:25 10° SSE
Cosmos 1833 4.4 18:52:30 10° SW 18:58:09 79° WNW 19:03:52 10° NNE
Terra 3.8 18:55:34 10° E 18:58:16 15° NE 19:00:59 10° NNE
Cosmos 1633 3.8 18:55:11 10° N 18:58:18 26° ENE 19:01:19 10° SE
ARIANE 5 R/B 4.0 18:55:11 10° ESE 18:58:42 24° ENE 19:02:13 10° N
USA-17 4.3 19:00:32 10° SW 19:04:04 62° SE 19:07:06 10° NE
Cosmos 1455 2.1 19:00:25 10° S 19:04:09 76° E 19:07:54 10° NNE
ATLAS 5 CENTAUR R/B 3.1 19:01:35 10° W 19:05:36 40° NNW 19:10:17 10° NE
OBJECT-B 2.0 19:04:17 10° S 19:07:22 44° W 19:10:32 10° NNW
CZ-4C R/B 2.9 19:02:56 10° WSW 19:08:10 60° NNW 19:14:37 10° NE
Spot 2 Rocket 4.4 19:04:05 10° SE 19:08:36 34° ENE 19:13:08 10° N
USA 245 4.2 19:06:59 11° SE 19:09:55 27° ENE 19:12:37 10° N
NOSS 3-4 (A) 3.6 19:06:42 10° SW 19:12:39 78° NW 19:19:11 10° NE
NOSS 3-4 (C) 3.6 19:06:48 10° SW 19:12:44 79° NW 19:19:18 10° NE
Cosmos 2151 3.6 19:09:48 10° N 19:13:53 40° ENE 19:17:31 12° SE
Cosmos 1655 Rocket 4.3 19:10:14 10° N 19:16:23 51° ENE 19:22:17 11° SSE
Cosmos 405 3.5 19:13:34 10° SSW 19:16:59 60° WNW 19:20:28 10° N
NOSS 7 (H) 4.1 19:15:41 10° SW 19:18:51 87° NW 19:21:47 10° NE
Cosmos 2058 Rocket 3.3 19:14:34 10° SSW 19:18:56 75° WNW 19:23:18 10° N
Cosmos 405 Rocket 2.8 19:16:04 10° NNW 19:20:08 88° W 19:24:06 10° S
Cosmos 1076 Rocket 3.5 19:16:21 10° N 19:20:45 77° ENE 19:25:03 10° SSE
Meteor 2-10 Rocket 4.2 19:15:36 10° SSW 19:20:51 63° WNW 19:26:22 10° N
Cosmos 2237 Rocket 2.2 19:20:39 10° NNW 19:26:20 86° ENE 19:31:22 13° SSE
ATLAS 2AS CENTAUR R/B 3.1 19:18:27 10° SW 19:26:24 90° SE 19:34:08 10° NE
Lacrosse 5 rocket 2.1 19:22:27 10° W 19:26:31 54° N 19:30:50 10° ENE
NOSS 0 Rocket 4.2 19:23:01 10° NW 19:29:12 67° WSW 19:35:21 10° SSE
Landsat 7 3.8 19:24:50 10° SSE 19:29:32 75° ENE 19:34:18 10° NNW
Cosmos 2251 Rocket 3.5 19:24:43 10° SSW 19:30:03 73° ESE 19:35:24 10° NNE
Cosmos 389 Rocket 2.6 19:26:53 10° S 19:30:19 52° E 19:33:49 10° NNE
SPOT 1/Viking Rocket 3.7 19:26:55 13° SE 19:31:32 60° ENE 19:36:42 10° N
Cosmos 1812 Rocket 3.8 19:27:50 10° S 19:32:07 50° E 19:36:28 10° NNE
Meteor 2-21 4.4 19:27:35 10° N 19:33:40 72° ENE 19:39:27 11° SSE
MetOp-B 4.1 19:31:05 11° SSE 19:36:16 80° ENE 19:41:40 10° NNW
Ariane Rocket 4.0 19:32:52 10° S 19:37:43 45° W 19:42:35 10° NNW
IGS 5A 3.5 19:34:22 11° SSE 19:38:23 84° WSW 19:42:34 10° NNW
SPOT 3 Rocket 3.7 19:33:12 10° SSE 19:38:25 79° WSW 19:43:38 10° NNW
COSMOS 2455 4.2 19:37:45 16° ESE 19:38:58 17° ESE 19:42:38 10° ENE
NOSS 7 (E) 4.2 19:35:45 10° SW 19:39:16 90° SSE 19:42:21 10° NE
BREEZE-M DEB (TANK) 3.3 19:37:50 10° SSW 19:39:41 16° S 19:39:41 16° S
Okean 3 Rocket 4.5 19:36:04 10° N 19:40:16 35° ENE 19:42:51 19° ESE
Resurs 01 Rocket 1.9 19:36:27 10° S 19:40:53 69° WSW 19:45:22 10° NNW
Cosmos 1766 Rocket 4.4 19:37:27 10° N 19:41:27 34° ENE 19:43:48 20° ESE
Cosmos 2227 Rocket 2.9 19:40:24 10° SSE 19:45:20 32° ESE 19:50:17 10° NE
CARTOSAT-1 3.9 19:43:48 20° SE 19:46:33 49° ENE 19:50:44 10° N
Cosmos 1825 4.2 19:45:15 10° NNW 19:48:29 27° W 19:51:43 10° SSW
NOSS 3-1 (C) 4.4 19:43:34 10° NW 19:50:21 57° NNE 19:57:20 14° ESE
Cosmos 2333 Rocket 4.3 19:47:25 10° NW 19:51:48 23° WSW 19:56:07 10° SSW
Cosmos 2297 Rocket 2.5 19:47:08 10° S 19:52:25 43° ESE 19:57:46 10° NE
Cosmos 44 3.5 19:50:01 10° SW 19:55:13 89° ESE 20:00:42 10° NE
Cosmos 614 Rocket 3.9 19:50:38 10° SSW 19:55:47 85° ESE 20:00:54 10° NNE
Cosmos 2219 3.5 19:51:27 10° S 19:56:42 42° ESE 20:01:59 10° NE
ATLAS 3B R/B 3.9 19:54:55 10° NW 20:01:10 36° WSW 20:07:38 10° S
USA 215 3.5 20:00:59 20° SE 20:05:34 59° SW 20:12:02 10° WNW
Genesis I 3.4 20:02:30 10° NW 20:06:29 65° SW 20:08:23 29° SSE
FALCON 9 DEB 3.2 20:03:24 10° SW 20:06:45 51° SSE 20:08:07 30° E
Cosmos 2279 Rocket 4.2 20:01:36 10° SSW 20:07:46 72° WNW 20:13:59 10° N
Cosmos 482 Debris 3.8 20:07:09 10° W 20:08:35 33° WSW 20:08:35 33° WSW
ERS-1 Rocket 2.9 20:14:28 26° SSE 20:17:19 75° ENE 20:22:21 10° NNW
Orbus 7S? 3.8 20:16:16 10° WSW 20:19:38 89° NNW 20:27:02 10° ENE
CZ-2C R/B 3.7 20:15:28 10° NNE 20:19:57 79° WNW 20:24:22 10° SSW
Cosmos 1862 4.2 20:16:39 10° N 20:20:17 33° ENE 20:21:15 29° E
Cosmos 407 Rocket 3.4 20:15:54 10° SSW 20:21:02 78° ESE 20:26:15 10° NNE
SL-16 R/B 2.2 20:15:23 10° NNW 20:21:07 85° NE 20:24:13 28° SE
RESURS DK-1 3.8 20:18:20 10° WSW 20:22:16 41° NW 20:26:14 10° NNE
H-2A R/B 4.2 20:19:38 10° NNE 20:23:30 34° E 20:24:06 32° ESE
Cosmos 1818 3.8 20:19:37 10° SW 20:25:04 72° NW 20:30:35 10° NE
JB-3 4.4 20:23:39 10° NNE 20:27:45 61° E 20:29:13 36° SSE
Cosmos 2266 Rocket 4.3 20:22:48 10° NNW 20:29:09 67° W 20:34:06 17° S
SPOT 5 2.7 20:28:33 31° SSE 20:30:45 90° WNW 20:35:35 10° NNW
Cosmos 1633 4.2 20:29:53 10° NNW 20:33:04 29° W 20:35:24 15° SW
ARIANE 5 R/B 3.1 20:32:24 24° S 20:34:53 54° W 20:39:13 10° NNW
Cosmos 921 Rocket 4.4 20:31:24 10° N 20:35:17 28° NE 20:36:49 23° E
Terra 1.8 20:33:15 35° SSE 20:35:17 75° ENE 20:40:04 10° NNW
Cosmos 1023 Rocket 4.4 20:30:46 10° SSW 20:35:52 89° WNW 20:41:00 10° NNE
Meteor 2-3 Rocket 4.3 20:30:58 10° NNW 20:36:37 55° W 20:40:43 18° SSW
Cosmos 1954 Rocket 4.1 20:34:30 29° S 20:36:53 54° ESE 20:41:56 10° NNE
Cosmos 909 Rocket 4.3 20:31:01 10° SW 20:37:17 71° NW 20:44:01 10° NE
Cosmos 2344 3.8 20:31:46 10° WSW 20:39:10 75° NW 20:47:41 10° NE
Cosmos 2084 Rocket 3.9 20:40:24 37° E 20:40:24 37° E 20:43:28 10° ENE
Cosmos-2242 3.3 20:37:39 18° SSW 20:40:49 65° WNW 20:45:07 10° N
Meteor 1-4 Rocket 2.3 20:41:49 61° SE 20:42:04 64° E 20:45:35 10° NNE
SeaSat 1 4.0 20:38:47 10° ENE 20:41:24 19° E 20:41:24 19° E
Cosmos 1140 Rocket 3.5 20:37:37 10° SSW 20:42:45 83° WNW 20:47:55 10° NNE
Meteor 1-27 4.2 20:39:31 19° S 20:43:43 87° ESE 20:49:36 10° NNE
Cosmos 1408 Rocket 3.5 20:39:57 10° N 20:44:17 70° ENE 20:45:27 46° SE
Nadezhda 2 Rocket 4.5 20:38:15 10° N 20:44:35 77° ENE 20:47:38 32° SSE
Timation 2 Rocket 3.9 20:39:40 10° SSW 20:46:13 77° ESE 20:52:31 10° NE
Spot 2 Rocket 4.3 20:44:16 20° SSW 20:47:28 46° W 20:52:22 10° NNW
Cosmos 1943 3.8 20:44:21 10° NNW 20:49:47 46° NE 20:52:25 27° ESE
ATLAS 5 CENTAUR R/B 3.9 20:47:29 10° WNW 20:51:25 26° N 20:55:54 10° ENE
Sich 1 4.3 20:54:02 10° N 20:57:41 26° ENE 20:58:19 26° E
CZ-4C R/B 4.1 20:52:33 10° WNW 20:57:53 35° N 21:04:17 10° ENE
USA 229 DEB 4.0 20:51:03 10° NW 20:58:13 74° NE 21:02:35 28° ESE
USA 229 4.0 20:51:08 10° NW 20:58:19 74° NE 21:02:42 28° ESE
Cosmos 1743 Rocket 3.7 20:56:19 10° N 21:00:38 57° ENE 21:01:20 50° ESE
Cosmos 468 Rocket 4.0 20:58:53 10° NNW 21:04:01 74° WSW 21:05:40 43° S
Cosmos 2221 2.5 21:05:30 57° ESE 21:05:53 60° E 21:10:06 10° NNE
Lacrosse 5 rocket 1.9 21:01:54 10° WNW 21:06:08 60° NNE 21:08:08 30° E
SL-08 R/B 4.4 21:02:19 10° N 21:08:31 78° ENE 21:10:57 40° SSE
Cosmos 2237 Rocket 4.1 21:05:42 10° NW 21:09:42 20° W 21:13:12 12° SW
BREEZE M DEB (TANK) 3.4 21:06:42 10° WSW 21:09:52 29° SW 21:09:52 29° SW
Cosmos 841 Rocket 3.5 21:05:55 10° NNW 21:11:10 69° ENE 21:12:38 46° SE
Cosmos 1869 3.9 21:11:04 33° SW 21:12:31 53° WNW 21:16:25 10° N
NOSS 3-1 (A) 4.0 21:08:55 10° NW 21:16:05 82° NE 21:20:32 31° SE
Cosmos 1606 3.7 21:18:34 34° ENE 21:18:34 34° ENE 21:21:21 10° NNE
ATLAS 2AS CENTAUR R/B 4.0 21:10:40 10° W 21:18:12 46° NNW 21:25:25 10° NE
Meteor 2-2 Rocket 4.2 21:17:29 41° S 21:19:35 78° E 21:25:19 10° NNE
Cosmos 1500 Rocket 3.5 21:15:22 10° N 21:19:52 86° ENE 21:20:32 64° SSE
Spot 4 4.3 21:19:20 43° ESE 21:20:23 51° ENE 21:25:06 10° N
Cosmos 1814 Rocket 4.2 21:15:38 10° NNW 21:20:57 61° ENE 21:22:24 44° ESE
Cosmos 1553 Rocket 3.9 21:19:14 43° SSE 21:21:15 68° E 21:27:19 10° NNE
Cosmos 1763 Rocket 3.8 21:16:59 10° NNW 21:21:57 56° WSW 21:23:15 43° SSW
COSMOS 2455 2.7 21:20:46 29° SSW 21:23:55 73° SE 21:29:58 10° NE
Cosmos 2263 Rocket 2.9 21:25:51 34° ESE 21:25:51 34° ESE 21:30:38 10° NE
Cosmos 2082 3.6 21:24:16 32° SSW 21:26:58 85° ESE 21:32:38 10° NNE
Cosmos 2227 Rocket 2.7 21:23:31 10° SW 21:29:07 59° NW 21:34:45 10° NNE
Cosmos 1417 Rocket 4.5 21:30:00 44° SSE 21:32:02 70° E 21:38:17 10° NNE
Cosmos 676 Rocket 4.3 21:30:06 22° SW 21:33:27 63° WNW 21:38:37 10° NNE
ALOS 2 3.4 21:33:19 36° E 21:33:51 38° ENE 21:37:56 10° N
Cosmos 1603 3.6 21:29:38 10° NNW 21:35:25 86° ENE 21:36:56 52° SE
Cosmos 2297 Rocket 3.2 21:31:05 10° WSW 21:36:31 45° NW 21:41:58 10° NNE
Cosmos 44 Rocket 3.3 21:37:25 56° S 21:38:24 73° SE 21:43:37 10° NE
Cosmos 540 Rocket 3.4 21:33:27 10° NNW 21:38:35 71° WSW 21:39:29 57° S
Timation 1 Rocket 4.3 21:35:59 24° SW 21:39:48 82° NW 21:45:49 10° NNE
Cosmos 2219 4.2 21:35:29 10° WSW 21:40:52 46° NW 21:46:18 10° NNE
NOSS 3-1 (C) 4.1 21:34:24 10° NW 21:41:36 63° SW 21:44:44 39° S
Cosmos 1174 4.1 21:37:40 10° NW 21:42:30 63° NE 21:42:53 60° ENE
Cosmos 1570 Rocket 3.9 21:49:03 10° NNW 21:54:22 79° WSW 21:55:11 63° S
Cosmos 2315 Rocket 4.4 21:53:18 42° SE 21:54:37 49° E 22:00:42 10° NNE
Cosmos 1151 Rocket 4.3 21:57:15 29° ENE 21:57:15 29° ENE 22:00:27 10° NNE
Cosmos 1437 Rocket 3.6 21:58:53 39° NE 21:58:53 39° NE 22:01:37 10° NNE
Meteor 1-25 Rocket 4.2 21:53:03 10° NNW 21:58:49 79° ENE 22:00:02 57° SSE
SL-16 R/B 3.9 22:00:27 10° NW 22:04:34 21° W 22:06:06 19° WSW
Meteor 2-17 Rocket 4.4 21:58:27 10° N 22:04:38 84° ENE 22:06:08 54° SSE
Intercosmos 24 4.4 22:05:28 57° SW 22:06:27 76° W 22:10:39 10° N
Terra 3.8 22:12:08 16° WSW 22:13:35 18° W 22:16:52 10° NW
Cosmos 921 Rocket 3.6 22:09:30 10° NNW 22:13:36 46° W 22:13:36 46° W
Cosmos 1741 Rocket 4.1 22:12:52 48° SW 22:14:17 72° WNW 22:19:35 10° NNE
Meteor 1-20 Rocket 4.2 22:12:06 10° NNW 22:17:55 75° W 22:18:59 59° SSW
Cosmos 2084 Rocket 4.4 22:16:47 21° W 22:19:06 43° NNW 22:23:04 10° NE
Cosmos 1850 Rocket 4.3 22:17:42 44° WSW 22:19:13 64° WNW 22:24:28 10° NNE
Cosmos 1745 Rocket 4.5 22:13:58 10° NNW 22:20:04 51° W 22:21:55 39° SW
SL-24 DEB 4.2 22:20:05 70° WSW 22:20:16 71° W 22:24:55 10° N
SeaSat 1 2.4 22:15:28 10° NNE 22:20:27 86° WNW 22:21:11 65° SW
Cosmos 1242 Rocket 4.1 22:22:00 29° NE 22:22:00 29° NE 22:24:14 10° NNE
Meteor 1-26 Rocket 4.5 22:20:59 52° SE 22:21:48 57° E 22:27:30 10° NNE
Cosmos 2227 4.1 22:21:22 64° S 22:22:10 75° ESE 22:27:56 10° NE
Cosmos 2074 Rocket 4.5 22:16:24 10° N 22:22:31 51° ENE 22:24:18 40° ESE
NOSS 2-1 (C) 4.2 22:26:28 40° NNE 22:26:28 40° NNE 22:29:07 10° NE
Cosmos 1709 Rocket 4.0 22:19:37 10° NNW 22:25:51 73° W 22:27:15 54° SSW
Thor Agena Rocket 4.1 22:22:03 10° NNE 22:26:54 41° E 22:26:54 41° E
Cosmos 1805 Rocket 4.5 22:24:08 10° NNW 22:28:09 38° W 22:28:09 38° W
Iridium 4 Rocket 3.4 22:28:36 68° ESE 22:28:55 71° E 22:34:15 10° N
Cosmos 2208 Rocket 4.3 22:25:17 10° NNW 22:30:27 52° WSW 22:30:49 51° WSW
NOSS 2-1 (D) 4.1 22:32:49 42° NNE 22:32:49 42° NNE 22:35:41 10° NE
Cosmos 1943 3.7 22:28:34 10° NW 22:33:51 42° WSW 22:34:14 42° WSW
Aureole 1 Rocket 3.8 22:33:07 42° WSW 22:34:42 59° WNW 22:39:09 10° NNE
Sich 1 3.9 22:31:29 10° NNW 22:35:16 40° W 22:35:16 40° W
S3M 4.4 22:34:13 38° SW 22:36:33 57° WNW 22:42:53 10° N
ATLAS 5 CENTAUR R/B 3.4 22:32:34 10° NW 22:37:15 38° NNE 22:42:46 10° E
Cosmos 1666 4.0 22:34:19 10° N 22:37:23 35° NE 22:37:23 35° NE
Cosmos 883 Rocket 4.5 22:38:47 52° SSW 22:40:23 76° WNW 22:46:43 10° N
Cosmos 1470 Rocket 3.6 22:36:33 10° N 22:40:44 73° NE 22:40:44 73° NE
Cosmos 968 Rocket 3.8 22:43:56 50° ESE 22:43:56 50° ESE 22:48:56 10° NE
USA 281 3.3 22:42:09 41° SE 22:44:37 73° ENE 22:51:12 10° NNW
Lacrosse 5 rocket 2.6 22:41:04 10° WNW 22:43:43 35° W 22:43:43 35° W
Cosmos 1782 3.3 22:48:00 60° NNE 22:48:00 60° NNE 22:51:23 10° NNE
CZ-4C R/B 3.9 22:41:54 10° NW 22:47:58 42° NNE 22:55:11 10° E
USA 229 DEB 4.4 22:42:15 10° NW 22:48:56 40° WSW 22:50:01 38° SW
USA 229 4.4 22:42:21 10° NW 22:49:02 40° WSW 22:50:07 38° SW
NOSS 2-2 (D) 4.2 22:44:50 10° NW 22:49:50 88° NE 22:51:32 51° SE
Cosmos 1633 Rocket 3.5 22:46:55 10° NNW 22:50:48 52° WNW 22:50:48 52° WNW
Nimbus 7 Rocket 4.3 22:45:50 10° NNE 22:51:45 75° ESE 22:52:42 62° SSE
Cosmos 1933 4.0 22:54:07 48° WNW 22:54:07 48° WNW 22:57:49 10° N
Cosmos 1812 3.8 22:55:54 38° NE 22:55:54 38° NE 22:58:42 10° NNE
Cosmos 1933 Rocket 3.7 22:53:03 10° N 22:57:12 71° NE 22:57:12 71° NE
Cosmos 1666 Rocket 4.5 22:54:51 10° NNW 22:58:48 39° W 22:58:48 39° W
PSLV R/B 4.5 22:55:13 10° NNE 22:59:33 42° E 22:59:33 42° E
Cosmos 836 Rocket 4.4 22:56:34 10° NNW 23:01:53 74° WSW 23:02:08 72° SW
Cosmos 1500 4.1 23:00:30 10° NNW 23:03:23 46° NW 23:03:23 46° NW
Cosmos 1486 Rocket 4.1 23:04:39 61° ESE 23:04:48 61° ESE 23:10:05 10° NNE
SL-16 R/B 4.0 23:03:05 13° ESE 23:07:44 31° NE 23:13:07 10° N
Cosmos 2263 Rocket 2.7 23:07:30 37° WSW 23:09:24 55° NW 23:14:54 10° NNE
ALOS 2 3.9 23:10:43 31° W 23:10:43 31° W 23:14:12 10° NNW
COSMOS 2455 4.1 23:04:47 10° W 23:10:22 37° NNW 23:15:58 10° NE
ATLAS 2AS CENTAUR R/B 4.2 23:03:40 10° WNW 23:10:52 39° N 23:17:39 10° ENE
COBE Rocket 4.1 23:11:50 53° W 23:11:50 53° W 23:16:34 10° NNW
Cosmos 1328 Rocket 3.7 23:13:01 67° WNW 23:13:01 67° WNW 23:17:19 10° N
Cosmos 1844 Rocket 2.8 23:22:25 56° SE 23:22:48 58° ESE 23:28:16 10° NE
Cosmos 2228 Rocket 3.6 23:26:28 48° E 23:26:28 48° E 23:30:33 10° NNE
Cosmos 2154 Rocket 3.9 23:20:05 10° N 23:26:30 89° E 23:28:04 55° SSE
SL-4 R/B 3.7 23:35:26 28° ESE 23:35:26 28° ESE 23:37:43 10° E
Cosmos 783 Rocket 4.3 23:28:37 10° NNW 23:33:58 83° WSW 23:34:28 73° S
Cosmos 1151 Rocket 4.0 23:34:05 36° WNW 23:34:09 36° WNW 23:38:11 10° N
Cosmos 2082 Rocket 3.8 23:29:29 10° NNW 23:34:34 33° NE 23:39:36 10° ESE
Meteor 1-5 Rocket 4.4 23:29:38 10° NNW 23:35:17 56° W 23:35:52 53° WSW
Cosmos 1733 Rocket 4.4 23:31:53 10° N 23:35:51 32° ENE 23:36:55 28° E
Meteor 2-12 Rocket 4.4 23:31:09 10° NNW 23:37:18 77° W 23:38:32 58° SSW
Cosmos 2184 Rocket 4.2 23:31:53 10° NNW 23:38:06 58° W 23:39:21 49° SW
USA 306 4.1 23:40:40 32° E 23:40:40 32° E 23:43:10 10° ENE
Meteor 2-6 Rocket 4.0 23:39:02 67° SSW 23:39:46 83° WNW 23:45:12 10° NNE
Cosmos 1271 Rocket 3.5 23:40:41 48° ENE 23:40:41 48° ENE 23:43:58 10° NNE
NOSS 2-2 (C) 4.5 23:35:03 10° NW 23:40:08 53° SW 23:40:17 53° SW
EO 1 Delta rocket 4.2 23:40:52 50° ESE 23:41:39 58° ENE 23:46:14 10° N
Cosmos 2327 Rocket 4.4 23:36:49 10° NNW 23:43:04 76° W 23:44:31 55° SSW
Resurs 1-4 Rocket 3.6 23:39:01 10° NE 23:43:19 25° E 23:44:51 22° ESE
Cosmos 1833 Rocket 3.3 23:37:45 10° NNW 23:43:20 55° NE 23:46:45 23° ESE
Cosmos 2341 Rocket 4.1 23:41:59 10° N 23:48:21 73° ENE 23:50:36 42° SSE
Cosmos 1503 Rocket 3.8 23:51:07 71° S 23:51:40 83° ESE 23:56:53 10° NNE
Helios 1A 3.0 23:54:16 73° WNW 23:54:16 73° WNW 23:58:14 10° NNW
CZ-2D R/B 3.5 23:49:45 10° NNE 23:54:34 30° E 23:56:22 25° SE
